KPZQ Airport (Presque Isle County) Information

FAA: PZQ - ICAO: KPZQ

KPZQ Airport Location

State Michigan
County Presque Isle
City Rogers City
KPZQ Airport is 1 miles south of Rogers City, MI.
Latitude 45-24-25.5000N
Longitude 083-48-46.3000W
Elevation 670ft

KPZQ Airport METARs

METAR KPZQ 091015Z AUTO 26003KT 10SM SCT047 09/06 A2990 RMK AO2 T00900057
Altimeter 29.90"
Temperature 9.0°C (48.2°F)
Wind 260° at 3KT
Clouds scattered at 4,700ft
Visibility 10.0mi
Time observed: 2023-06-09T10:15:00Z

KPZQ Airport Details

Status Operational
Activation April 1940
Ownership Public
Usage Public
Chart LAKE HURON
ATC on-site No
Beacon schedule sunset-sunrise
Beacon color clear green

KPZQ Airport Contacts

Owner PRESQUE ISLE COUNTY
Owner address 657 S BRADLEY HWY, ROGERS CITY, MI 49779
Owner phone 989-734-2216
Manager KELLY J. HANSON
Manager address 3100 PTE. AUX BARQUES RD, PORT AUSTIN, MI 48467
Manager phone 989-269-7299

KPZQ Airport (Presque Isle County) Radio Frequencies

KPZQ (Airport) Radio Frequencies

UNICOM N/A
Common traffic advisory frequency (CTAF) 122.9